Вернуться в каталог

COSMOS 2499 DEB

АктивенPO
NORAD 49939·DEBRIS·🇷🇺 Russia

Запущен May 23, 2014 с Plesetsk Cosmodrome

Loading…

Ближайшие Пролёты (ближайшие 24 часа)

TLE

СвежийSource: Space-Track

Эпоха: Sep 14, 2026, 13:43 UTC

1 49939U 14028W   26257.57220004  .00002020  00000-0  66151-2 0  9996
2 49939  82.5019 194.1343 0270050 116.6375 246.2664 12.89175620228350

Отслеживайте COSMOS 2499 DEB в реальном времени с AllMySat

Download on the App Store